Terug naar catalogus

IDEFIX/ARIANE 42P

ActiefAmateurradioSSO
NORAD 27422·PAYLOAD·🇫🇷 France

Gelanceerd May 4, 2002 vanaf Guiana Space Centre

Loading…

Volgende Passages (komende 24 uur)

TLE

VersSource: Space-Track

Epoch: Sep 14, 2026, 06:32 UTC

1 27422U 02021B   26257.27283702  .00000147  00000-0  72316-4 0  9990
2 27422  98.5977 193.8022 0011869 358.4421   1.6723 14.31116089270991

Volg IDEFIX/ARIANE 42P in realtime met AllMySat

Download on the App Store